DECAYED

CZ-6A DEB, 61364 (Decayed)

Orbit data source: Space-Track

CZ-6A DEB, 61364 was space debris in LEO originally from a launch on Tue, 06 Aug 2024 UTC launched from the Taiyaun Space Center, China (TSC). Debris objects in space refer to the collection of defunct objects orbiting the Earth. Examples of debris include non-operational satellites, rocket bodies, and fragments generated from explosions, collisions, or faulty payload assembly.

Loading next visibility...
Identifier
61364, 2024-140WD
Orbit
Decayed
Country
Flag of CNCN / PRC
Related business
Manufacturer
SAST
Mission
Decayed spacecraft
Bus & Motor
Unknown
Mass
Unknown
Launch date (UTC)
2024-08-06 (1 year ago)
Launch vehicle
Unknown
Launch site
Taiyaun Space Center, China (TSC)
Object type
Payload
Rocket body
Debris
Shape & HBR
Unknown shape, 0.1 m
Radar Cross Section
Small (<0.1 m²)

Expand to show TLE details & history
Last TLE update: 8 months ago

TLE from 8 months ago
0 CZ-6A DEB
1 61364U 24140WD  25119.28571562  .04951500  00000-0  24807-1 0  9991
2 61364  89.1201 323.3637 0014611 194.0444 166.0428 15.77631770 35413
Epoch: 2025-04-29T06:51Z
TLE epoch observation values (Epoch: 2025-04-29T06:51:25.829Z)
Latitude
-0.0001°
Longitude
3.01851°
Altitude
349.954 km
Speed
7.693 km/s
True Right ascension
21h 33m 27s
True Declination
0° 00' 00"
Sunlit
Object was in daylight at epoch
Visualization orbit readout
Latitude
Unknown
Longitude
Unknown
Altitude
Unknown
Speed
Unknown
Apparent Right ascension
Unknown
Apparent Declination
Unknown
Sunlit
N/A
Visualization observer readout
Local Sidereal Time
14:39:52
Azimuth
Unknown
Elevation
Unknown
Doppler factor
Unknown
Orbital elements
Apogee altitude
343.688 km
Perigee altitude
324.074 km
Semi-major axis
6,712.018 km
Eccentricity
0.00146
Inclination
89.1201°
RAAN
323.3637°
Arg. of periapsis
194.0444°
True anomaly
166.08311°
Mean anomaly
166.0428°
Eccentric anomaly
166.06296°
Mean motion
3.94697 °/min
Orbital period
91.21 mins
BSTAR
0.024807
Loading maneuver chart data...
Computing Atmospheric mass density...
Loading historical data...
Loading historical data...
Loading historical data...
Loading historical data...
Loading historical data...
Loading historical data...
Loading historical data...

Documentation

Showing up to 5 results
|